Regional Weather Roundup
Issued by NWS Newport/Morehead, NC

Current Version | Previous Version | Text Only | Print | Product List | Glossary On
Versions: 1 2 3 4 5 6 7 8 9 10 11 12 13 14 15 16 17 18 19 20 21 22 23 24 25 26 27 28 29 30 31 32 33 34 35 36 37 38 39 40 41 42 43 44 45 46 47
000 ASUS42 KMHX 192325 RWRMHX WEATHER ROUNDUP FOR EASTERN NORTH CAROLINA NATIONAL WEATHER SERVICE NEWPORT/MOREHEAD CITY NC 700 PM EDT SAT AUG 19 2017 NOTE: "FAIR" INDICATES FEW OR NO CLOUDS BELOW 12,000 FEET WITH NO SIGNIFICANT WEATHER AND/OR OBSTRUCTIONS TO VISIBILITY NCZ015>017-031-032-045>047-102-103-200000- NORTH COAST CITY SKY/WX TMP DP RH WIND PRES REMARKS EDENTON CLOUDY 82 75 80 SW16 29.93R ELIZABETH CITY CLOUDY 81 78 91 N3 29.91F KITTY HAWK LGT RAIN 78 75 92 CALM 29.91S MANTEO CLOUDY 78 76 94 W9 29.93S $$ NCZ045>047-081-094-103-104-200000- CENTRAL COAST CITY SKY/WX TMP DP RH WIND PRES REMARKS FRISCO LGT RAIN 76 74 93 SW12 29.94F $$ NCZ095-097-098-100-101-200000- SOUTHERN COAST CITY SKY/WX TMP DP RH WIND PRES REMARKS BEAUFORT PTCLDY 77 76 96 CALM 29.95S CEDAR ISLAND NOT AVBL JACKSONVILLE CLOUDY 76 76 100 S6 29.93F PINEY ISLAND CLOUDY N/A N/A N/A SE5 29.93F WILMINGTON CLOUDY 77 74 90 CALM 29.94F $$ NCZ011>013-027>030-043-044-078>080-089-090>093-098-200000- COASTAL PLAIN CITY SKY/WX TMP DP RH WIND PRES REMARKS AHOSKIE N/A 83 78 84 CALM 29.92S CLINTON PTSUNNY 82 76 81 CALM 29.94S ELIZABETHTOWN NOT AVBL GOLDSBORO MOSUNNY 84 79 84 S3 29.92S GREENVILLE CLOUDY 82 73 74 S5 29.95S HAVELOCK LGT RAIN 77 74 90 W7 29.96S KENANSVILLE CLOUDY 79 73 83 S3 29.94S KINSTON NOT AVBL NEW BERN LGT RAIN 75 75 100 S7 29.94F RICHLANDS CLOUDY 75 74 96 S3 29.94F ROCKY MOUNT CLOUDY 87 75 67 CALM 29.92F WASHINGTON CLOUDY 78 73 84 S3 29.93F WHITEVILLE PTSUNNY 78 75 91 CALM 29.94R $$ AMZ130-135-150-152-154-156-158-170-250-252-270-ANZ085-086-088-633-658-670-200000- MARINE OBSERVATIONS STATION/POSITION TIME TEMP WIND PRES WAVE SWELL AIR SEA DIR/SP/G HT/PER HT/PER (UTC) (F) (DEG/KT/KT) (MB) (FT/S) (FT/S) CHESAPEAKE LIGHT NOT AVBL 64 E VA BEACH 2250 79 80 310/ 2/ 4 1013.6 4/ 6 3/ 6 DUCK 2300 79 79 80/ 5/ 8 1012.7 2 E DUCK 2300 81 N/A 2/ 8 OREGON INLET 2300 79 86 230/ 16/ 18 1013.5 13E OREGON INLT 2248 80 N/A 3/ 6 2/ 8 HATTERAS CG 2300 77 84 180/ 5/ 9 1013.7 DIAMOND BUOY 2250 77 84 210/ 8/ 10 1014.0 4/ 4 3/ 4 CAPE LOOKOUT 2300 78 90/ 9/ 9 1014.0 BEAUFORT LAB 2300 78 82 130/ 4/ 5 1013.7 30 SE NEW RVR IN 2308 74 84 310/ 4/ 8 1014.3 30 SE NEW RVR IN 2243 84 N/A 4/ 6 27 SE WRIGHTSVLE 2308 80 84 240/ 10/ 16 1014.2 5 SE WRIGHTSVLE 2308 79 83 150/ 4/ 8 1013.9 225 S CAPE HAT 2250 84 85 200/ 12/ 14 1016.2 4/ 8 3/ 8 41 SE CHARLESTON 2310 84 85 210/ 12/ 16 1013.6 $$

USA.gov is the U.S. government's official web portal to all federal, state and local government web resources and services.